Hourly Weather Roundup
Issued by NWS Central Illinois

Home | Current Version | Previous Version | Text Only | Print | Product List | Glossary On
Versions: 1 2 3 4 5 6 7 8 9 10 11 12 13 14 15 16 17 18 19 20 21 22 23 24 25 26 27 28 29 30 31 32 33 34 35 36 37 38 39 40 41 42 43 44 45 46 47 48 49 50
000
NZUS43 KILX 250810
HWRILX

AREA WEATHER ROUNDUP
NATIONAL WEATHER SERVICE, LINCOLN IL
300 AM CDT SAT MAR 25 2017


CITY           SKY/WX    TMP DP  RH WIND       PRES   REMARKS
BLOOMINGTON    LGT RAIN  48  46  93 NE12      29.97F FOG
CHAMPAIGN      CLOUDY    59  54  83 E8        29.94F
DECATUR        CLOUDY    61  54  77 SE13      29.91F
EFFINGHAM      CLOUDY    63  55  76 E12       29.93F
FLORA          MOCLDY    64  55  72 SE15      29.93F
GALESBURG      DRIZZLE   47  45  92 NE15G22     N/A
JACKSONVILLE   LGT RAIN  60  58  94 SE10      29.86F
LACON          LGT RAIN  44  42  95 NE6       29.97F
LAWRENCEVILLE  PTCLDY    64  54  69 S16       29.97F
LITCHFIELD     RAIN      58  57  96 W3        29.87F
$$


CITY           SKY/WX    TMP DP  RH WIND       PRES   REMARKS
LINCOLN        CLOUDY    59  57  94 SE3       29.95R
MACOMB         LGT RAIN  55  54  96 NE14      29.91F
MATTOON        PTCLDY    63  54  72 SE14      29.93F
MT CARMEL AP   CLOUDY    64  52  66 SE14      29.96F
OLNEY-NOBLE AP CLOUDY    63  55  77 SE13      29.95F
PARIS          MOCLDY    61  54  76 SE13      29.98F
PEORIA         RAIN      50  49  96 E13       29.94F FOG
PONTIAC        CLOUDY    46  46  97 NE17      29.99F FOG
RANTOUL        CLOUDY    60  57  88 SE6       29.96F
SPRINGFIELD    HVY RAIN  61  58  90 SE6       29.91F FOG
TAYLORVILLE    CLOUDY    63  55  77 SE10      29.88F
$$

...REGIONAL REPORTS...


CITY           SKY/WX    TMP DP  RH WIND       PRES   REMARKS
CHICAGO O`HARE CLOUDY    41  37  86 NE13      30.06F WCI  34
KANKAKEE       CLOUDY    42  40  94 N10G16    30.03S FOG
MOLINE         CLOUDY    44  41  89 NE17      29.97F
MOUNT STERLING LGT RAIN  56  56  98 E15       29.84F
MOUNT VERNON   CLOUDY    64  55  72 SE9       29.90F
PITTSFIELD     RAIN      59  58  98 E8        29.84F
QUINCY         LGT RAIN  56  56 100 NE12      29.82F FOG
ROCKFORD       LGT RAIN  41  37  86 NE12      30.07R FOG     WCI  34
$$


CITY           SKY/WX    TMP DP  RH WIND       PRES   REMARKS
BURLINGTON     CLOUDY    55  55 100 NE15G23   29.88F FOG
CEDAR RAPIDS   CLOUDY    42  42 100 NE18      29.95F FOG     WCI  34
DES MOINES     CLOUDY    44  41  89 NE13      29.91F
KIRKSVILLE     CLOUDY    56  55  97 E9        29.83F
OTTUMWA        FOG       51  51 100 NE15      29.87F VSB 1/2
ST LOUIS       HVY RAIN  61  58  90 SE9       29.86S FOG
$$


CITY           SKY/WX    TMP DP  RH WIND       PRES   REMARKS
TERRE HAUTE    PTCLDY    62  52  69 SE8       29.99F
EVANSVILLE     MOCLDY    63  52  67 SE8       30.00F
INDIANAPOLIS   CLOUDY    62  52  69 S9        30.03F
LAFAYETTE      CLOUDY    62  52  69 S5        30.00F
MADISON        LGT RAIN  36  34  92 N12       30.09S FOG     WCI  28
MILWAUKEE      LGT RAIN  38  34  85 NE16      30.09F WCI  29
$$






USA.gov is the U.S. government's official web portal to all federal, state and local government web resources and services.